User: anonymous   Login
Location: Unspecified
(0.0000°N, 0.0000°E)
Time: 11:41:58
(UTC+00:00)
Language:

SWAS - Orbit

View from above orbital plane
View from above orbital plane
View from above satellite
View from above satellite

Ground track
Ground track

The orbit data is extracted from the following two-line orbital elements,

1 25560U 98071A   18288.88051697  .00000106  00000-0  18592-4 0  9990
2 25560  69.8972 119.5965 0008434 200.2133 159.8690 14.93644266 78061
Epoch (UTC): 15 October 2018 21:07:56
Eccentricity: 0.0008434
inclination: 69.8972°
perigee height: 581 km
apogee height: 592 km
right ascension of ascending node: 119.5965°
argument of perigee: 200.2133°
revolutions per day: 14.93644266
mean anomaly at epoch: 159.8690°
orbit number at epoch: 7806

The dashed part of the orbit path shows where the satellite is in the earth's shadow,  

DLR